FDX241 CYYC-KGTF

Flight info

Callsign FDX241
Flight time 0h 46m
Altitude 27000
Route GADKI Q957 VOBUK DCT JEBOB
Aircraft A306/H-SDE3FGHIRWY/LB1

Departure

Time 2026-04-24 02:22
Airport Calgary International Airport (CYYC)

Arrival

Time 2026-04-24 03:08
Airport Great Falls International Airport (KGTF)
Time Latitude Longitude Altitude Speed Heading
2026-04-24 01:57 51.11957 -114.02783 3552 ft 0 kts 221°
2026-04-24 02:09 51.11969 -114.02768 3550 ft 4 kts 200°
2026-04-24 02:09 51.11991 -114.02768 3552 ft 4 kts 144°
2026-04-24 02:10 51.12001 -114.02782 3551 ft 1 kts 133°
2026-04-24 02:13 51.12000 -114.02781 3548 ft 0 kts 133°
2026-04-24 02:13 51.11995 -114.02771 3552 ft 4 kts 131°
2026-04-24 02:13 51.11991 -114.02764 3552 ft 0 kts 131°
2026-04-24 02:14 51.11988 -114.02757 3552 ft 2 kts 128°
2026-04-24 02:14 51.11975 -114.02710 3552 ft 7 kts 104°
2026-04-24 02:15 51.11952 -114.02624 3551 ft 10 kts 124°
2026-04-24 02:15 51.11898 -114.02517 3553 ft 15 kts 128°
2026-04-24 02:15 51.11812 -114.02419 3554 ft 16 kts 171°
2026-04-24 02:15 51.11700 -114.02416 3555 ft 17 kts 181°
2026-04-24 02:16 51.11571 -114.02411 3556 ft 20 kts 176°
2026-04-24 02:16 51.11425 -114.02416 3558 ft 21 kts 181°
2026-04-24 02:16 51.11291 -114.02417 3559 ft 19 kts 180°
2026-04-24 02:16 51.11172 -114.02413 3560 ft 16 kts 179°
2026-04-24 02:17 51.11071 -114.02412 3561 ft 13 kts 180°
2026-04-24 02:17 51.10987 -114.02412 3562 ft 11 kts 179°
2026-04-24 02:17 51.10917 -114.02411 3560 ft 9 kts 179°
2026-04-24 02:17 51.10830 -114.02414 3563 ft 16 kts 182°
2026-04-24 02:18 51.10702 -114.02456 3560 ft 19 kts 196°
2026-04-24 02:18 51.10583 -114.02504 3563 ft 16 kts 193°
2026-04-24 02:18 51.10480 -114.02558 3560 ft 16 kts 199°
2026-04-24 02:18 51.10360 -114.02580 3558 ft 18 kts 178°
2026-04-24 02:19 51.10233 -114.02577 3559 ft 18 kts 180°
2026-04-24 02:19 51.10125 -114.02578 3563 ft 13 kts 180°
2026-04-24 02:19 51.10049 -114.02578 3566 ft 9 kts 180°
2026-04-24 02:19 51.09992 -114.02578 3566 ft 10 kts 180°
2026-04-24 02:20 51.09905 -114.02579 3568 ft 15 kts 180°
2026-04-24 02:20 51.09824 -114.02524 3566 ft 11 kts 126°
2026-04-24 02:20 51.09789 -114.02419 3571 ft 14 kts 117°
2026-04-24 02:20 51.09739 -114.02263 3575 ft 14 kts 117°
2026-04-24 02:21 51.09726 -114.02167 3580 ft 6 kts 62°
2026-04-24 02:21 51.09785 -114.02137 3573 ft 14 kts
2026-04-24 02:21 51.09985 -114.02137 3575 ft 54 kts
2026-04-24 02:21 51.10565 -114.02135 3560 ft 109 kts 359°
2026-04-24 02:22 51.11488 -114.02133 3555 ft 155 kts 360°
2026-04-24 02:22 51.12698 -114.02129 3768 ft 183 kts 358°
2026-04-24 02:22 51.13979 -114.02169 4441 ft 185 kts 352°
2026-04-24 02:22 51.15172 -114.02782 5230 ft 187 kts 330°
2026-04-24 02:23 51.16154 -114.04354 5602 ft 221 kts 302°
2026-04-24 02:23 51.16527 -114.06876 6119 ft 251 kts 273°
2026-04-24 02:23 51.15955 -114.09604 7043 ft 272 kts 246°
2026-04-24 02:23 51.14566 -114.11870 7766 ft 299 kts 220°
2026-04-24 02:24 51.12614 -114.13119 8749 ft 311 kts 196°
2026-04-24 02:24 51.10430 -114.13275 9474 ft 325 kts 179°
2026-04-24 02:24 51.08157 -114.12942 10341 ft 327 kts 176°
2026-04-24 02:24 51.05885 -114.12541 11193 ft 329 kts 175°
2026-04-24 02:25 51.03630 -114.11739 11868 ft 340 kts 163°
2026-04-24 02:25 51.01395 -114.10189 12182 ft 358 kts 150°
2026-04-24 02:25 50.99314 -114.07998 12634 ft 368 kts 142°
2026-04-24 02:25 50.97293 -114.05444 13244 ft 374 kts 139°
2026-04-24 02:26 50.95274 -114.02770 13753 ft 382 kts 139°
2026-04-24 02:26 50.93198 -114.00085 14325 ft 387 kts 141°
2026-04-24 02:26 50.91062 -113.97440 14949 ft 390 kts 142°
2026-04-24 02:26 50.88916 -113.94869 15484 ft 394 kts 143°
2026-04-24 02:27 50.86695 -113.92275 16061 ft 397 kts 144°
2026-04-24 02:27 50.84458 -113.89700 16675 ft 399 kts 144°
2026-04-24 02:27 50.82198 -113.87117 17259 ft 401 kts 145°
2026-04-24 02:27 50.79924 -113.84521 17807 ft 404 kts 145°
2026-04-24 02:28 50.77638 -113.81909 18373 ft 406 kts 145°
2026-04-24 02:28 50.75335 -113.79270 18936 ft 408 kts 145°
2026-04-24 02:28 50.73028 -113.76630 19476 ft 410 kts 145°
2026-04-24 02:28 50.70706 -113.73980 20014 ft 412 kts 145°
2026-04-24 02:29 50.68390 -113.71370 20563 ft 413 kts 148°
2026-04-24 02:29 50.65878 -113.69132 21092 ft 413 kts 157°
2026-04-24 02:29 50.63223 -113.67384 21596 ft 414 kts 161°
2026-04-24 02:29 50.60510 -113.65817 22104 ft 415 kts 163°
2026-04-24 02:30 50.57766 -113.64349 22591 ft 416 kts 164°
2026-04-24 02:30 50.55036 -113.62959 23035 ft 419 kts 165°
2026-04-24 02:30 50.52252 -113.61545 23484 ft 421 kts 164°
2026-04-24 02:30 50.49460 -113.60118 23938 ft 422 kts 164°
2026-04-24 02:31 50.46660 -113.58674 24374 ft 424 kts 164°
2026-04-24 02:31 50.43849 -113.57215 24785 ft 426 kts 164°
2026-04-24 02:31 50.41024 -113.55744 25167 ft 428 kts 163°
2026-04-24 02:31 50.38191 -113.54267 25591 ft 429 kts 163°
2026-04-24 02:32 50.35363 -113.52792 26107 ft 427 kts 163°
2026-04-24 02:32 50.32587 -113.51346 26607 ft 425 kts 163°
2026-04-24 02:32 50.29777 -113.49885 26948 ft 425 kts 163°
2026-04-24 02:32 50.26954 -113.48423 27037 ft 425 kts 163°
2026-04-24 02:33 50.24147 -113.46971 27040 ft 424 kts 163°
2026-04-24 02:33 50.21340 -113.45518 27043 ft 426 kts 163°
2026-04-24 02:33 50.18513 -113.44057 27046 ft 437 kts 163°
2026-04-24 02:33 50.15576 -113.42541 27042 ft 448 kts 163°
2026-04-24 02:34 50.12581 -113.40995 27036 ft 457 kts 163°
2026-04-24 02:34 50.10569 -113.39959 27035 ft 463 kts 163°
2026-04-24 02:34 50.07467 -113.38363 27034 ft 471 kts 163°
2026-04-24 02:34 50.03334 -113.36239 27031 ft 473 kts 163°
2026-04-24 02:35 50.00203 -113.34633 27030 ft 473 kts 163°
2026-04-24 02:35 49.98114 -113.33562 27030 ft 473 kts 163°
2026-04-24 02:35 49.94985 -113.31960 27030 ft 474 kts 163°
2026-04-24 02:35 49.91853 -113.30359 27031 ft 476 kts 163°
2026-04-24 02:36 49.88705 -113.28752 27031 ft 476 kts 163°
2026-04-24 02:36 49.85564 -113.27150 27031 ft 476 kts 163°
2026-04-24 02:36 49.82399 -113.25540 27031 ft 477 kts 163°
2026-04-24 02:36 49.79244 -113.23937 27031 ft 477 kts 163°
2026-04-24 02:37 49.76086 -113.22336 27030 ft 477 kts 163°
2026-04-24 02:37 49.72965 -113.20735 27029 ft 478 kts 161°
2026-04-24 02:37 49.69935 -113.18585 27033 ft 479 kts 155°
2026-04-24 02:37 49.66943 -113.16301 27031 ft 479 kts 154°
2026-04-24 02:38 49.63975 -113.13935 27031 ft 480 kts 154°
2026-04-24 02:38 49.61049 -113.11549 27025 ft 480 kts 153°
2026-04-24 02:38 49.58098 -113.09123 27021 ft 480 kts 153°
2026-04-24 02:38 49.55148 -113.06698 27020 ft 480 kts 153°
2026-04-24 02:39 49.52197 -113.04282 27021 ft 480 kts 153°
2026-04-24 02:39 49.49232 -113.01864 27022 ft 480 kts 153°
2026-04-24 02:39 49.46309 -112.99491 27021 ft 480 kts 153°
2026-04-24 02:39 49.43354 -112.97101 27022 ft 479 kts 153°
2026-04-24 02:40 49.40396 -112.94715 27022 ft 480 kts 154°
2026-04-24 02:40 49.37438 -112.92332 27021 ft 479 kts 154°
2026-04-24 02:40 49.34481 -112.89953 27022 ft 479 kts 154°
2026-04-24 02:40 49.31554 -112.87603 27023 ft 479 kts 154°
2026-04-24 02:41 49.28606 -112.85238 27030 ft 479 kts 154°
2026-04-24 02:41 49.25638 -112.82859 27031 ft 479 kts 154°
2026-04-24 02:41 49.22682 -112.80494 27031 ft 479 kts 154°
2026-04-24 02:41 49.19724 -112.78130 27029 ft 479 kts 154°
2026-04-24 02:42 49.16765 -112.75768 27022 ft 479 kts 154°
2026-04-24 02:42 49.13808 -112.73408 27021 ft 479 kts 154°
2026-04-24 02:42 49.10880 -112.71077 27015 ft 479 kts 154°
2026-04-24 02:42 49.07883 -112.68693 27015 ft 479 kts 154°
2026-04-24 02:43 49.04974 -112.66383 27012 ft 479 kts 154°
2026-04-24 02:43 49.02016 -112.64036 27013 ft 479 kts 154°
2026-04-24 02:43 48.99058 -112.61693 27014 ft 479 kts 154°
2026-04-24 02:43 48.96086 -112.59341 27015 ft 479 kts 154°
2026-04-24 02:44 48.93123 -112.57001 27008 ft 479 kts 154°
2026-04-24 02:44 48.90161 -112.54664 27012 ft 479 kts 154°
2026-04-24 02:44 48.87239 -112.52361 27013 ft 479 kts 154°
2026-04-24 02:44 48.84280 -112.50033 27010 ft 478 kts 154°
2026-04-24 02:45 48.81320 -112.47709 27005 ft 478 kts 154°
2026-04-24 02:45 48.78361 -112.45389 27004 ft 478 kts 154°
2026-04-24 02:45 48.75392 -112.43064 27002 ft 478 kts 154°
2026-04-24 02:45 48.72473 -112.40780 27003 ft 478 kts 154°
2026-04-24 02:46 48.69473 -112.38437 27002 ft 478 kts 155°
2026-04-24 02:46 48.66544 -112.36160 27007 ft 480 kts 155°
2026-04-24 02:46 48.63590 -112.33870 26602 ft 476 kts 155°
2026-04-24 02:46 48.60644 -112.31583 25557 ft 476 kts 155°
2026-04-24 02:47 48.57681 -112.29276 24679 ft 478 kts 155°
2026-04-24 02:47 48.54711 -112.26963 24188 ft 478 kts 155°
2026-04-24 02:47 48.51788 -112.24683 24020 ft 467 kts 155°
2026-04-24 02:47 48.48948 -112.22477 24007 ft 463 kts 155°
2026-04-24 02:48 48.46089 -112.20266 24011 ft 462 kts 155°
2026-04-24 02:48 48.43204 -112.18040 24012 ft 462 kts 155°
2026-04-24 02:48 48.40369 -112.15856 24021 ft 461 kts 155°
2026-04-24 02:48 48.37520 -112.13663 24021 ft 461 kts 155°
2026-04-24 02:49 48.34655 -112.11460 24021 ft 460 kts 155°
2026-04-24 02:49 48.31794 -112.09263 24022 ft 459 kts 155°
2026-04-24 02:49 48.28946 -112.07077 24021 ft 459 kts 155°
2026-04-24 02:49 48.26138 -112.04924 24021 ft 459 kts 155°
2026-04-24 02:50 48.23293 -112.02746 24021 ft 458 kts 155°
2026-04-24 02:50 48.20442 -112.00567 24022 ft 458 kts 155°
2026-04-24 02:50 48.17592 -111.98391 24022 ft 457 kts 155°
2026-04-24 02:50 48.14754 -111.96228 24022 ft 457 kts 155°
2026-04-24 02:51 48.11949 -111.94091 24020 ft 455 kts 155°
2026-04-24 02:51 48.09189 -111.91985 24012 ft 434 kts 156°
2026-04-24 02:51 48.06551 -111.89971 24010 ft 414 kts 156°
2026-04-24 02:51 48.04036 -111.88054 23993 ft 397 kts 156°
2026-04-24 02:52 48.01653 -111.86243 23730 ft 381 kts 156°
2026-04-24 02:52 47.99334 -111.84485 23341 ft 368 kts 156°
2026-04-24 02:52 47.97063 -111.82769 22783 ft 361 kts 156°
2026-04-24 02:52 47.94829 -111.81087 22162 ft 358 kts 157°
2026-04-24 02:53 47.92622 -111.79425 21523 ft 355 kts 157°
2026-04-24 02:53 47.90417 -111.77767 20860 ft 352 kts 157°
2026-04-24 02:53 47.88262 -111.76146 20224 ft 350 kts 157°
2026-04-24 02:53 47.86093 -111.74518 19569 ft 348 kts 158°
2026-04-24 02:54 47.83929 -111.72892 18898 ft 346 kts 158°
2026-04-24 02:54 47.81791 -111.71285 18241 ft 344 kts 158°
2026-04-24 02:54 47.79655 -111.69680 17588 ft 339 kts 158°
2026-04-24 02:54 47.77570 -111.68096 16913 ft 339 kts 157°
2026-04-24 02:55 47.75469 -111.66497 16267 ft 337 kts 157°
2026-04-24 02:55 47.73383 -111.64912 15615 ft 335 kts 156°
2026-04-24 02:55 47.71304 -111.63332 14964 ft 333 kts 156°
2026-04-24 02:55 47.69247 -111.61765 14317 ft 331 kts 155°
2026-04-24 02:56 47.67206 -111.60209 13665 ft 328 kts 155°
2026-04-24 02:56 47.65208 -111.58680 13018 ft 326 kts 155°
2026-04-24 02:56 47.63196 -111.57136 12372 ft 324 kts 154°
2026-04-24 02:56 47.61188 -111.55631 11719 ft 322 kts 155°
2026-04-24 02:57 47.59183 -111.54132 11071 ft 320 kts 154°
2026-04-24 02:57 47.57199 -111.52664 10443 ft 317 kts 155°
2026-04-24 02:57 47.55231 -111.51300 10059 ft 306 kts 163°
2026-04-24 02:57 47.53153 -111.50910 9806 ft 299 kts 189°
2026-04-24 02:58 47.51212 -111.51824 9573 ft 290 kts 216°
2026-04-24 02:58 47.49701 -111.53667 9360 ft 284 kts 230°
2026-04-24 02:58 47.48352 -111.55759 9126 ft 275 kts 231°
2026-04-24 02:58 47.47095 -111.57748 9028 ft 253 kts 232°
2026-04-24 02:59 47.45912 -111.59599 8999 ft 245 kts 232°
2026-04-24 02:59 47.44760 -111.61395 8990 ft 237 kts 232°
2026-04-24 02:59 47.43630 -111.63159 8987 ft 236 kts 232°
2026-04-24 02:59 47.42517 -111.64899 8721 ft 228 kts 232°
2026-04-24 03:00 47.41436 -111.66580 8392 ft 225 kts 232°
2026-04-24 03:00 47.40363 -111.68245 8089 ft 223 kts 232°
2026-04-24 03:00 47.39306 -111.69886 8004 ft 223 kts 232°
2026-04-24 03:00 47.38201 -111.71525 8002 ft 225 kts 223°
2026-04-24 03:01 47.36767 -111.72405 7983 ft 233 kts 189°
2026-04-24 03:01 47.35160 -111.72042 8001 ft 237 kts 159°
2026-04-24 03:01 47.33673 -111.70985 7998 ft 237 kts 152°
2026-04-24 03:01 47.32246 -111.69852 7986 ft 229 kts 152°
2026-04-24 03:02 47.30986 -111.68481 7983 ft 223 kts 125°
2026-04-24 03:02 47.30421 -111.66435 7983 ft 212 kts 89°
2026-04-24 03:02 47.30549 -111.64308 8005 ft 207 kts 73°
2026-04-24 03:02 47.30995 -111.62358 7991 ft 201 kts 55°
2026-04-24 03:03 47.31802 -111.60714 7928 ft 196 kts 42°
2026-04-24 03:03 47.32753 -111.59282 7688 ft 195 kts 39°
2026-04-24 03:03 47.33713 -111.57863 7379 ft 195 kts 39°
2026-04-24 03:03 47.34675 -111.56439 7071 ft 194 kts 39°
2026-04-24 03:04 47.35625 -111.55040 6790 ft 192 kts 39°
2026-04-24 03:04 47.36589 -111.53631 6586 ft 197 kts 39°
2026-04-24 03:04 47.37555 -111.52203 6438 ft 196 kts 40°
2026-04-24 03:04 47.38507 -111.50783 6255 ft 189 kts 39°
2026-04-24 03:05 47.39400 -111.49475 6066 ft 172 kts 38°
2026-04-24 03:05 47.40224 -111.48286 5743 ft 161 kts 38°
2026-04-24 03:05 47.41001 -111.47118 5381 ft 157 kts 39°
2026-04-24 03:05 47.41773 -111.45992 5090 ft 156 kts 40°
2026-04-24 03:06 47.42534 -111.44894 4871 ft 151 kts 40°
2026-04-24 03:06 47.43270 -111.43789 4623 ft 151 kts 43°
2026-04-24 03:06 47.43999 -111.42727 4453 ft 148 kts 42°
2026-04-24 03:06 47.44727 -111.41651 4247 ft 145 kts 43°
2026-04-24 03:07 47.45433 -111.40621 4067 ft 145 kts 44°
2026-04-24 03:07 47.46137 -111.39557 3899 ft 143 kts 43°
2026-04-24 03:07 47.46838 -111.38526 3746 ft 140 kts 44°
2026-04-24 03:07 47.47504 -111.37546 3685 ft 122 kts 46°
2026-04-24 03:08 47.47978 -111.36847 3679 ft 71 kts 45°
2026-04-24 03:08 47.48438 -111.36169 3672 ft 32 kts 44°
2026-04-24 03:08 47.48546 -111.36007 3671 ft 19 kts 45°
2026-04-24 03:09 47.48632 -111.35880 3672 ft 16 kts 45°
2026-04-24 03:09 47.48709 -111.35766 3671 ft 15 kts 45°
2026-04-24 03:09 47.48794 -111.35641 3670 ft 19 kts 44°
2026-04-24 03:09 47.48897 -111.35489 3667 ft 22 kts 45°
2026-04-24 03:10 47.48987 -111.35449 3668 ft 11 kts 333°
2026-04-24 03:10 47.49039 -111.35511 3669 ft 8 kts 311°
2026-04-24 03:10 47.49055 -111.35586 3669 ft 9 kts 256°
2026-04-24 03:10 47.49007 -111.35673 3670 ft 11 kts 226°
2026-04-24 03:11 47.48958 -111.35746 3670 ft 9 kts 225°
2026-04-24 03:11 47.48929 -111.35808 3671 ft 6 kts 259°
2026-04-24 03:11 47.48946 -111.35877 3671 ft 8 kts 308°
2026-04-24 03:11 47.48963 -111.35901 3671 ft 0 kts 318°